Starlink 4706

operational
NORAD ID: 53779 Int'l Des: 2022-111 Owner: SPXS Country: US Constellation: starlink
LEOCIRCULAR

About Starlink 4706

Description loading...

Live Position

Loading 3D Globe...

Upcoming Passes

Altitude History

Altitude vs Time

uPlot chart will show altitude changes over time

Two-Line Element Set

1 53779U 22111G 25343.13370693 -.00000184 00000-0 65420-5 0 9993
2 53779 53.2188 320.7569 0001844 85.0574 275.0629 15.08838797180026
Epoch: Dec 9, 2025 • Age: 10 hours

Current Status

Altitude 539.6 km
Velocity 7.60 km/s
Sub-Earth Point 13.51°N, 152°W
Launch Date Sep 11, 2022
Age 3.2 years
Type internet

Technical Details

Classification Payload
Mass 305.00 kg
Dry Mass 290.00 kg
Total Mass 305.00 kg
Length 0.20 m
Diameter 2.80 m
Span 9.00 m
Shape Box + pan
Manufacturer SPXS
Bus Type Starlink
Phase Status In Orbit
Owner/State SPXS/US

Large Constellations

Loading constellations...